Flag for Denmark Weather past 2 weeks in Randers, Denmark

Now
63 °F

Mild.


Feels Like: 63 °F
Forecast: 54 / 71 °F
Wind: 7 mph from Southeast

Location: Tirstrup

Current Time: Aug 4, 2015 at 3:39:39 AM

Latest Report: Aug 4, 2015 at 2:50 AM


Visibility: N/A

Pressure: 30.01 "Hg

Humidity: 68%

Dew point: 52 °F

Location of RandersLocation

Historic Weather in Randers — Graph

°F

Randers temperature yesterday

Maximum temperature yesterday: 73 °F (at 4:20 PM)
Minimum temperature yesterday: 46 °F (at 4:50 AM)
Average temperature yesterday: 62 °F

Past Weeks' High & Low Weather Summary

 TemperatureHumidityPressure
High73 °F (Aug 3, 4:20 PM)94% (Jul 20, 4:50 AM)30.15 "Hg (Jul 20, 4:50 AM)
Low45 °F (Jul 30, 4:50 AM)33% (Jul 24, 4:20 PM)29.36 "Hg (Jul 28, 5:20 AM)
Average60 °F69%29.78 "Hg
* Reported Jul 20 2:20 AM — Aug 4 2:20 AM, Randers, Weather by CustomWeather, © 2015

Note: Actual official high and low records may vary slightly from our data, if they occured in-between our weather recording intervals... More about our weather records

Advertising

Randers weather history for previous 24 hours

 ConditionsComfort  
Time TempWeatherWind HumidityBarometerVisibility
2:20 AM
Tue, Aug 4
63 °FPassing clouds.6 mph68%30.01 "HgN/A
1:50 AM63 °FPassing clouds.6 mph68%30.01 "HgN/A
1:20 AM63 °FPassing clouds.6 mph68%30.04 "HgN/A
12:50 AM63 °FPassing clouds.7 mph68%30.04 "HgN/A
12:20 AM63 °FMild.9 mph64%30.04 "HgN/A
11:20 PM
Mon, Aug 3
64 °FMild.9 mph64%30.04 "HgN/A
10:50 PM64 °FMild.8 mph60%30.04 "HgN/A
10:20 PM66 °FPassing clouds.9 mph56%30.04 "HgN/A
9:50 PM66 °FPassing clouds.10 mph56%30.04 "HgN/A
9:20 PM68 °FPassing clouds.10 mph49%30.04 "HgN/A
8:50 PM68 °FMild.9 mph49%30.04 "HgN/A
8:20 PM70 °FMild.9 mph46%30.04 "HgN/A
7:50 PM70 °FMild.10 mph46%30.04 "HgN/A
7:20 PM72 °FMild.9 mph44%30.04 "HgN/A
6:50 PM72 °FMild.9 mph41%30.04 "HgN/A
6:20 PM73 °FMild.12 mph38%30.07 "HgN/A
5:50 PM73 °FMild.12 mph41%30.07 "HgN/A
5:20 PM73 °FMild.12 mph44%30.07 "HgN/A
4:50 PM73 °FMild.16 mph44%30.09 "HgN/A
4:20 PM73 °FMild.13 mph41%30.09 "HgN/A
3:50 PM72 °FMild.12 mph47%30.09 "HgN/A
3:20 PM72 °FMild.9 mph50%30.09 "HgN/A
2:20 PM72 °FMild.9 mph47%30.12 "HgN/A
1:50 PM72 °FMild.8 mph44%30.12 "HgN/A
1:20 PM70 °FMild.9 mph43%30.12 "HgN/A
12:50 PM70 °FMild.9 mph46%30.12 "HgN/A
12:20 PM70 °FMild.8 mph46%30.15 "HgN/A
11:50 AM68 °FMild.7 mph49%30.15 "HgN/A
11:20 AM68 °FMild.9 mph53%30.15 "HgN/A
10:50 AM66 °FPassing clouds.10 mph56%30.15 "HgN/A
10:20 AM66 °FPassing clouds.9 mph60%30.15 "HgN/A
9:50 AM64 °FPassing clouds.9 mph64%30.15 "HgN/A
9:20 AM63 °FMild.8 mph68%30.15 "HgN/A
8:50 AM63 °FMild.7 mph68%30.15 "HgN/A
8:20 AM59 °FCool.5 mph82%30.15 "HgN/A
7:50 AM55 °FCool.1 mph82%30.15 "HgN/A
7:20 AM50 °FCool.No wind88%30.15 "HgN/A
6:50 AM48 °FFog.No wind87%30.15 "Hg2 mi
6:20 AM46 °FFog.No wind87%30.15 "Hg0 mi
5:50 AM46 °FFog.No wind87%30.15 "Hg0 mi
5:20 AM46 °FFog.No wind87%30.15 "Hg0 mi
4:50 AM46 °FFog.No wind87%30.15 "Hg0 mi
4:20 AM48 °FFog.No wind82%30.15 "Hg1 mi
3:50 AM48 °FFog.No wind82%30.15 "Hg1 mi
3:20 AM48 °FPassing clouds.No wind82%30.15 "HgN/A
Weather by CustomWeather, © 2015

See weather overviewHow to use our weather pages